Weather History for Lancaster, TX

Change the Weather History Date:

Saturday, November 9, 2013

  Actual Average (KRBD) Record (KRBD)
Temperature  
Mean Temperature 60 °F -  
Max Temperature 67 °F 64 °F 88 °F (2005)
Min Temperature 52 °F 48 °F 30 °F (2000)
Degree Days  
Heating Degree Days 6    
Growing Degree Days 10 (Base 50)    
Moisture  
Dew Point 48 °F    
Average Humidity 71    
Maximum Humidity 86    
Minimum Humidity 58    
Precipitation  
Precipitation 0.00 in - - ()
Sea Level Pressure  
Sea Level Pressure 30.18 in    
Wind  
Wind Speed 4 mph (SSE)    
Max Wind Speed 14 mph    
Max Gust Speed 18 mph    
Visibility 10 miles    
Events Rain    
Averages and records for this station are not official NWS values.
T = Trace of Precipitation, MM = Missing Value Source: NWS Daily Summary

Daily Weather History Graph

Daily Weather History Graph

Search for Another Location

Airport:

Trip Planner

Search our weather history database for the weather conditions in past years. The results will help you decide how hot, cold, wet, or windy it might be!

Date:

Astronomy

Nov. 09, 2013 Rise Set
Actual Time 6:51 AM CST 5:29 PM CST
Civil Twilight 6:25 AM CST 5:55 PM CST
Nautical Twilight 5:56 AM CST 6:24 PM CST
Astronomical Twilight 5:27 AM CST 6:53 PM CST
Moon 12:32 PM CST (11/9) 11:56 PM CST (11/9)
Length of Visible Light 11h 29m
Length of Day
10h 38m
Waxing Crescent, 44% of the Moon is Illuminated
Nov 9
Waxing Crescent
Nov 9
First Quarter
Nov 17
Full
Nov 25
Last Quarter
Dec 2
New

Hourly Weather History & Observations

Time (CST) Temp. Dew Point Humidity Pressure Visibility Wind Dir Wind Speed Gust Speed Precip Events Conditions
12:15 AM 54.0 °F 45.7 °F 74% 30.16 in 10.0 mi Calm Calm - N/A   Overcast
12:35 AM 53.6 °F 45.9 °F 75% 30.16 in 10.0 mi Calm Calm - N/A   Overcast
12:55 AM 53.2 °F 46.6 °F 78% 30.16 in 10.0 mi Calm Calm - N/A   Mostly Cloudy
1:15 AM 52.7 °F 47.7 °F 83% 30.16 in 10.0 mi Calm Calm - N/A   Mostly Cloudy
1:35 AM 52.7 °F 47.7 °F 83% 30.15 in 10.0 mi SSE 3.5 mph - N/A   Mostly Cloudy
1:55 AM 52.9 °F 47.3 °F 81% 30.16 in 10.0 mi Calm Calm - N/A   Mostly Cloudy
2:15 AM 53.1 °F 46.9 °F 80% 30.16 in 10.0 mi Calm Calm - N/A   Overcast
2:35 AM 52.9 °F 47.8 °F 83% 30.15 in 10.0 mi Calm Calm - N/A   Overcast
2:55 AM 52.7 °F 48.2 °F 85% 30.15 in 10.0 mi Calm Calm - N/A   Overcast
3:15 AM 52.7 °F 48.4 °F 85% 30.16 in 10.0 mi Calm Calm - N/A   Overcast
3:35 AM 52.9 °F 48.7 °F 86% 30.16 in 10.0 mi Calm Calm - N/A Rain Light Rain
3:55 AM 52.7 °F 48.4 °F 85% 30.16 in 10.0 mi Calm Calm - N/A   Overcast
4:15 AM 52.7 °F 48.4 °F 85% 30.16 in 10.0 mi SSE 3.5 mph - N/A Rain Light Rain
4:35 AM 52.7 °F 48.2 °F 85% 30.16 in 10.0 mi SE 4.6 mph - N/A   Overcast
4:55 AM 52.9 °F 47.5 °F 82% 30.16 in 10.0 mi SSE 5.8 mph - N/A   Overcast
5:15 AM 53.2 °F 46.8 °F 79% 30.17 in 10.0 mi SSE 4.6 mph - N/A   Overcast
5:35 AM 53.1 °F 47.1 °F 80% 30.17 in 10.0 mi SSE 5.8 mph - N/A   Overcast
5:55 AM 53.4 °F 46.4 °F 77% 30.17 in 10.0 mi SSE 3.5 mph - N/A   Overcast
6:15 AM 53.6 °F 45.5 °F 74% 30.19 in 10.0 mi South 5.8 mph - N/A   Overcast
6:35 AM 53.8 °F 45.5 °F 74% 30.18 in 10.0 mi SSE 5.8 mph - N/A   Overcast
6:55 AM 53.6 °F 45.5 °F 74% 30.18 in 10.0 mi SSE 5.8 mph - N/A   Overcast
7:15 AM 53.8 °F 45.3 °F 73% 30.18 in 10.0 mi SSE 4.6 mph - N/A   Overcast
7:35 AM 54.0 °F 45.0 °F 72% 30.18 in 10.0 mi SSE 4.6 mph - N/A   Overcast
7:55 AM 54.0 °F 45.1 °F 72% 30.18 in 10.0 mi South 4.6 mph - N/A   Overcast
8:15 AM 54.5 °F 45.1 °F 71% 30.19 in 10.0 mi South 5.8 mph - N/A   Overcast
8:35 AM 54.9 °F 45.5 °F 71% 30.19 in 10.0 mi South 8.1 mph - N/A   Overcast
8:55 AM 55.9 °F 45.5 °F 68% 30.20 in 10.0 mi SSE 5.8 mph - N/A   Overcast
9:15 AM 56.5 °F 45.7 °F 67% 30.20 in 10.0 mi South 6.9 mph - N/A   Overcast
9:35 AM 57.2 °F 45.1 °F 64% 30.21 in 10.0 mi South 6.9 mph - N/A   Overcast
9:55 AM 57.6 °F 45.7 °F 65% 30.21 in 10.0 mi South 8.1 mph - N/A   Overcast
10:15 AM 58.5 °F 46.4 °F 64% 30.21 in 10.0 mi South 9.2 mph - N/A   Overcast
10:35 AM 59.2 °F 46.8 °F 63% 30.21 in 10.0 mi South 8.1 mph - N/A   Overcast
10:55 AM 60.1 °F 47.3 °F 63% 30.20 in 10.0 mi SSE 9.2 mph - N/A   Overcast
11:15 AM 61.2 °F 47.7 °F 61% 30.19 in 10.0 mi South 11.5 mph - N/A   Overcast
11:35 AM 62.2 °F 48.6 °F 61% 30.19 in 10.0 mi South 9.2 mph - N/A   Overcast
11:55 AM 63.1 °F 48.6 °F 59% 30.18 in 10.0 mi South 9.2 mph - N/A   Overcast
12:15 PM 64.0 °F 49.5 °F 59% 30.17 in 10.0 mi South 9.2 mph - N/A   Overcast
12:35 PM 63.5 °F 49.5 °F 60% 30.17 in 10.0 mi SSE 9.2 mph - N/A   Overcast
12:55 PM 65.3 °F 50.4 °F 58% 30.15 in 10.0 mi SSE 10.4 mph - N/A   Mostly Cloudy
1:15 PM 66.2 °F 51.4 °F 59% 30.15 in 10.0 mi SSE 9.2 mph - N/A   Scattered Clouds
1:35 PM 66.0 °F 50.9 °F 58% 30.14 in 10.0 mi SSE 9.2 mph 17.3 mph N/A   Clear
1:55 PM 66.0 °F 50.9 °F 58% 30.14 in 10.0 mi South 9.2 mph - N/A   Scattered Clouds
2:15 PM 66.9 °F 52.0 °F 59% 30.13 in 10.0 mi SSE 13.8 mph 18.4 mph N/A   Clear
2:35 PM 67.1 °F 52.0 °F 58% 30.14 in 10.0 mi South 8.1 mph - N/A   Mostly Cloudy
2:55 PM 66.2 °F 51.8 °F 60% 30.14 in 10.0 mi South 9.2 mph - N/A   Overcast
3:15 PM 66.7 °F 52.2 °F 59% 30.14 in 10.0 mi SSE 10.4 mph - N/A   Overcast
3:35 PM 66.9 °F 52.2 °F 59% 30.15 in 10.0 mi SSE 10.4 mph - N/A   Mostly Cloudy
3:55 PM 65.7 °F 51.8 °F 61% 30.15 in 10.0 mi SSE 9.2 mph - N/A   Mostly Cloudy
4:15 PM 64.4 °F 51.6 °F 63% 30.16 in 10.0 mi SSE 9.2 mph - N/A   Overcast
4:35 PM 64.4 °F 51.3 °F 62% 30.16 in 10.0 mi SSE 8.1 mph - N/A   Overcast
4:55 PM 63.5 °F 51.3 °F 64% 30.16 in 10.0 mi SE 6.9 mph - N/A   Scattered Clouds
5:15 PM 61.0 °F 51.8 °F 72% 30.17 in 10.0 mi ESE 3.5 mph - N/A   Clear
5:35 PM 59.5 °F 52.0 °F 76% 30.17 in 10.0 mi ESE 4.6 mph - N/A   Clear
5:55 PM 58.8 °F 51.6 °F 77% 30.17 in 10.0 mi ESE 3.5 mph - N/A   Scattered Clouds
6:15 PM 58.1 °F 51.6 °F 79% 30.18 in 10.0 mi ESE 4.6 mph - N/A   Clear
6:35 PM 57.6 °F 50.9 °F 78% 30.19 in 10.0 mi SE 4.6 mph - N/A   Scattered Clouds
6:55 PM 58.6 °F 49.8 °F 72% 30.20 in 10.0 mi SE 6.9 mph - N/A   Mostly Cloudy
7:15 PM 58.6 °F 49.6 °F 72% 30.20 in 10.0 mi SE 4.6 mph - N/A   Overcast
7:35 PM 58.1 °F 49.3 °F 72% 30.21 in 10.0 mi SE 5.8 mph - N/A   Overcast
7:55 PM 57.7 °F 48.7 °F 72% 30.21 in 10.0 mi SE 6.9 mph - N/A   Overcast
8:35 PM 57.7 °F 48.7 °F 72% 30.22 in 10.0 mi ESE 6.9 mph - N/A   Overcast
8:55 PM 57.6 °F 49.1 °F 73% 30.22 in 10.0 mi SE 6.9 mph - N/A   Overcast
9:15 PM 57.2 °F 49.5 °F 75% 30.23 in 10.0 mi SE 4.6 mph - N/A   Overcast
9:35 PM 57.0 °F 49.1 °F 75% 30.23 in 10.0 mi ESE 6.9 mph - N/A   Overcast
9:55 PM 56.5 °F 49.1 °F 76% 30.23 in 10.0 mi ESE 4.6 mph - N/A   Overcast
10:15 PM 56.3 °F 48.4 °F 75% 30.24 in 10.0 mi SSE 5.8 mph - N/A   Overcast
10:35 PM 55.9 °F 48.2 °F 75% 30.24 in 10.0 mi SE 6.9 mph - N/A   Overcast
10:55 PM 55.6 °F 48.0 °F 76% 30.24 in 10.0 mi SE 5.8 mph - N/A   Overcast
11:15 PM 55.6 °F 47.7 °F 75% 30.25 in 10.0 mi SE 4.6 mph - N/A   Overcast
11:35 PM 55.4 °F 48.2 °F 77% 30.25 in 10.0 mi ESE 3.5 mph - N/A   Overcast
11:55 PM 55.4 °F 47.7 °F 75% 30.24 in 10.0 mi ESE 3.5 mph - N/A   Overcast